Starlink 2153

operational
NORAD ID: 48009 Int'l Des: 2021-024 Owner: SPXS Country: US Constellation: starlink
LEOCIRCULAR

Über Starlink 2153

Beschreibung wird geladen...

Live-Position

3D-Globus wird geladen...

Nächste Überflüge

Höhenverlauf

Altitude vs Time

uPlot chart will show altitude changes over time

Zweizeiliger Elementsatz

1 48009U 21024AJ 26094.73252773 .00018935 00000-0 64933-3 0 9991
2 48009 53.1597 188.4313 0001340 86.8856 273.2298 15.30222408278883
Epoch: 4. Apr. 2026 • Age: 22 hours

Aktueller Status

Höhe 478.4 km
Geschwindigkeit 7.63 km/s
Subsatellitenpunkt 42.56°N, 156.72°E
Startdatum 24. März 2021
Alter 5 years
Typ internet

Technische Details

Klassifizierung Payload
Masse 260.00 kg
Trockenmasse 248.00 kg
Gesamtmasse 260.00 kg
Länge 0.20 m
Durchmesser 2.80 m
Spannweite 9.00 m
Form Box + pan
Hersteller SPXS
Bus-Typ Starlink
Phasenstatus In Orbit
Besitzer/Staat SPXS/US

Große Konstellationen

Loading constellations...